Weather History for KLCK - March, 2013

Change the Weather History Date:

Friday, March 29, 2013

  Actual Average (KCMH) Record (KCMH)
Temperature  
Mean Temperature 42 °F 47 °F  
Max Temperature 55 °F 57 °F 83 °F (1910)
Min Temperature 28 °F 37 °F 14 °F (1887)
Degree Days  
Heating Degree Days 24 18  
Month to date heating degree days 680  
Since 1 July heating degree days 4675  
Cooling Degree Days 0 0  
Month to date cooling degree days 0  
Year to date cooling degree days 0  
Moisture  
Dew Point 26 °F    
Average Humidity 56    
Maximum Humidity 86    
Minimum Humidity 30    
Precipitation  
Precipitation 0.00 in 0.11 in 2.18 in (1974)
Month to date precipitation 2.79  
Year to date precipitation 7.77  
Snow  
Snow 0.00 in 0.10 in 1.90 in (1970)
Month to date snowfall 4.1  
Since 1 July snowfall 25.5  
Snow Depth -    
Sea Level Pressure  
Sea Level Pressure 30.26 in    
Wind  
Wind Speed 3 mph (WSW)    
Max Wind Speed 13 mph    
Max Gust Speed 18 mph    
Visibility 10 miles    
Events      
T = Trace of Precipitation, MM = Missing Value Source: NWS Daily Summary

Daily Weather History Graph

Daily Weather History Graph

Search for Another Location

Airport or City:

Trip Planner

Search our weather history database for the weather conditions in past years. The results will help you decide how hot, cold, wet, or windy it might be!

Date:

Astronomy

Mar. 29, 2013 Rise Set
Actual Time 7:20 AM EDT 7:53 PM EDT
Civil Twilight 6:53 AM EDT 8:20 PM EDT
Nautical Twilight 6:21 AM EDT 8:52 PM EDT
Astronomical Twilight 5:48 AM EDT 9:25 PM EDT
Moon 10:51 PM EDT (3/29) 8:28 AM EDT (3/29)
Length of Visible Light 13h 27m
Length of Day
12h 32m
Waning Gibbous, 93% of the Moon is Illuminated
Mar 29
Waning Gibbous
Apr 3
Last Quarter
Apr 10
New
Apr 18
First Quarter
Apr 25
Full

Hourly Weather History & Observations

Time (EDT) Temp. Windchill Dew Point Humidity Pressure Visibility Wind Dir Wind Speed Gust Speed Precip Events Conditions
12:15 AM 34.2 °F 30.0 °F 24.8 °F 69% 30.30 in 10.0 mi South 4.6 mph - N/A   Clear
12:35 AM 33.4 °F - 25.0 °F 71% 30.30 in 10.0 mi Calm Calm - N/A   Clear
12:55 AM 33.8 °F - 24.8 °F 70% 30.30 in 10.0 mi Calm Calm - N/A   Clear
1:15 AM 33.3 °F - 24.8 °F 71% 30.30 in 10.0 mi Calm Calm - N/A   Clear
1:35 AM 32.2 °F 28.9 °F 25.0 °F 75% 30.30 in 10.0 mi SSE 3.5 mph - N/A   Clear
1:55 AM 32.0 °F - 25.0 °F 75% 30.30 in 10.0 mi Calm Calm - N/A   Clear
2:15 AM 31.8 °F - 25.2 °F 76% 30.30 in 10.0 mi Calm Calm - N/A   Clear
2:35 AM 32.0 °F - 25.2 °F 76% 30.30 in 10.0 mi Calm Calm - N/A   Clear
2:55 AM 31.1 °F 26.4 °F 24.8 °F 77% 30.30 in 10.0 mi South 4.6 mph - N/A   Clear
3:15 AM 30.0 °F 26.5 °F 24.6 °F 80% 30.29 in 10.0 mi South 3.5 mph - N/A   Clear
3:35 AM 29.8 °F 26.3 °F 24.6 °F 81% 30.29 in 10.0 mi South 3.5 mph - N/A   Clear
3:55 AM 30.4 °F - 25.0 °F 80% 30.29 in 10.0 mi Calm Calm - N/A   Clear
4:15 AM 30.7 °F - 25.2 °F 80% 30.28 in 10.0 mi Calm Calm - N/A   Clear
4:35 AM 30.9 °F - 25.2 °F 79% 30.29 in 10.0 mi Calm Calm - N/A   Clear
4:55 AM 30.9 °F - 25.2 °F 79% 30.29 in 10.0 mi Calm Calm - N/A   Clear
5:15 AM 30.6 °F 27.1 °F 24.4 °F 78% 30.29 in 10.0 mi SW 3.5 mph - N/A   Clear
5:35 AM 29.3 °F 25.6 °F 24.1 °F 81% 30.29 in 10.0 mi SW 3.5 mph - N/A   Clear
5:55 AM 28.9 °F - 24.4 °F 83% 30.28 in 10.0 mi Calm Calm - N/A   Clear
6:15 AM 29.5 °F 25.9 °F 25.0 °F 83% 30.28 in 10.0 mi South 3.5 mph - N/A   Clear
6:35 AM 28.8 °F - 24.6 °F 84% 30.29 in 7.0 mi Calm Calm - N/A   Clear
6:55 AM 28.4 °F - 24.8 °F 86% 30.29 in 7.0 mi Calm Calm - N/A   Clear
7:15 AM 28.4 °F 24.6 °F 24.8 °F 86% 30.29 in 7.0 mi SSE 3.5 mph - N/A   Clear
7:35 AM 28.4 °F 24.6 °F 24.8 °F 86% 30.30 in 5.0 mi SSE 3.5 mph - N/A   Clear
7:55 AM 28.4 °F 24.6 °F 24.6 °F 86% 30.30 in 5.0 mi South 3.5 mph - N/A   Clear
8:15 AM 29.1 °F 25.4 °F 25.2 °F 85% 30.30 in 5.0 mi South 3.5 mph - N/A   Clear
8:35 AM 31.5 °F 28.1 °F 27.3 °F 85% 30.30 in 5.0 mi South 3.5 mph - N/A   Clear
8:55 AM 33.1 °F 30.0 °F 28.2 °F 82% 30.30 in 7.0 mi South 3.5 mph - N/A   Clear
9:15 AM 34.9 °F - 28.8 °F 78% 30.31 in 10.0 mi Calm Calm - N/A   Clear
9:35 AM 36.9 °F - 29.1 °F 74% 30.30 in 10.0 mi Calm Calm - N/A   Clear
9:55 AM 39.0 °F - 29.7 °F 69% 30.31 in 10.0 mi Calm Calm - N/A   Clear
10:15 AM 40.8 °F - 29.7 °F 64% 30.31 in 10.0 mi Calm Calm - N/A   Clear
10:35 AM 41.5 °F - 29.1 °F 61% 30.31 in 10.0 mi Calm Calm - N/A   Clear
10:55 AM 43.7 °F 42.1 °F 29.5 °F 57% 30.31 in 10.0 mi SSE 3.5 mph - N/A   Clear
11:15 AM 45.1 °F 42.8 °F 28.8 °F 53% 30.31 in 10.0 mi SSW 4.6 mph - N/A   Clear
11:35 AM 46.4 °F 45.2 °F 28.6 °F 50% 30.31 in 10.0 mi SSW 3.5 mph - N/A   Clear
11:55 AM 48.0 °F - 28.2 °F 46% 30.31 in 10.0 mi West 9.2 mph - N/A   Clear
12:15 PM 49.1 °F - 27.1 °F 43% 30.30 in 10.0 mi SSW 3.5 mph - N/A   Clear
12:35 PM 50.2 °F - 26.1 °F 39% 30.29 in 10.0 mi WSW 4.6 mph - N/A   Scattered Clouds
12:55 PM 50.5 °F - 25.2 °F 37% 30.28 in 10.0 mi WNW 3.5 mph - N/A   Scattered Clouds
1:15 PM 51.8 °F - 25.3 °F 36% 30.28 in 10.0 mi WSW 4.6 mph 17.3 mph N/A   Scattered Clouds
1:35 PM 52.5 °F - 25.7 °F 35% 30.27 in 10.0 mi SW 5.8 mph - N/A   Mostly Cloudy
1:55 PM 52.5 °F - 25.3 °F 35% 30.26 in 10.0 mi West 10.4 mph - N/A   Mostly Cloudy
2:15 PM 53.2 °F - 24.8 °F 33% 30.25 in 10.0 mi WSW 8.1 mph 16.1 mph N/A   Scattered Clouds
2:35 PM 53.8 °F - 24.4 °F 32% 30.24 in 10.0 mi WNW 9.2 mph 16.1 mph N/A   Scattered Clouds
2:55 PM 54.1 °F - 24.8 °F 32% 30.23 in 10.0 mi WNW 12.7 mph 18.4 mph N/A   Scattered Clouds
3:15 PM 54.9 °F - 23.7 °F 30% 30.23 in 10.0 mi West 6.9 mph 18.4 mph N/A   Mostly Cloudy
3:35 PM 55.2 °F - 24.1 °F 30% 30.22 in 10.0 mi WNW 10.4 mph - N/A   Scattered Clouds
3:55 PM 55.6 °F - 24.1 °F 30% 30.21 in 10.0 mi WNW 12.7 mph 17.3 mph N/A   Scattered Clouds
4:15 PM 55.4 °F - 24.3 °F 30% 30.21 in 10.0 mi WNW 6.9 mph 17.3 mph N/A   Scattered Clouds
4:35 PM 55.4 °F - 24.1 °F 30% 30.21 in 10.0 mi WNW 6.9 mph - N/A   Overcast
4:55 PM 54.1 °F - 24.6 °F 32% 30.20 in 10.0 mi West 9.2 mph - N/A   Overcast
5:15 PM 53.8 °F - 24.8 °F 33% 30.20 in 10.0 mi NW 6.9 mph - N/A   Overcast
5:35 PM 54.1 °F - 24.1 °F 31% 30.20 in 10.0 mi NW 9.2 mph - N/A   Overcast
5:55 PM 53.8 °F - 24.1 °F 32% 30.20 in 10.0 mi West 8.1 mph - N/A   Overcast
6:15 PM 53.8 °F - 24.8 °F 33% 30.20 in 10.0 mi WNW 10.4 mph - N/A   Overcast
6:35 PM 53.1 °F - 24.4 °F 33% 30.20 in 10.0 mi WNW 8.1 mph - N/A   Overcast
6:55 PM 52.9 °F - 24.8 °F 34% 30.20 in 10.0 mi NW 8.1 mph - N/A   Overcast
7:15 PM 52.5 °F - 24.8 °F 34% 30.20 in 10.0 mi NW 5.8 mph - N/A   Overcast
7:35 PM 52.2 °F - 24.4 °F 34% 30.20 in 10.0 mi WNW 6.9 mph - N/A   Overcast
7:55 PM 51.6 °F - 25.0 °F 36% 30.20 in 10.0 mi WNW 6.9 mph - N/A   Overcast
8:15 PM 50.7 °F - 24.8 °F 36% 30.20 in 10.0 mi NW 5.8 mph - N/A   Overcast
8:35 PM 49.5 °F - 25.2 °F 39% 30.21 in 10.0 mi NW 4.6 mph - N/A   Mostly Cloudy
8:55 PM 48.4 °F - 25.5 °F 41% 30.21 in 10.0 mi NW 4.6 mph - N/A   Scattered Clouds
9:15 PM 47.5 °F - 25.7 °F 43% 30.21 in 10.0 mi NW 3.5 mph - N/A   Clear
9:35 PM 46.6 °F - 26.2 °F 45% 30.22 in 10.0 mi NW 3.5 mph - N/A   Clear
9:55 PM 46.0 °F 43.9 °F 26.4 °F 46% 30.23 in 10.0 mi NW 4.6 mph - N/A   Clear
10:15 PM 45.1 °F 42.8 °F 25.9 °F 47% 30.23 in 10.0 mi NNW 4.6 mph - N/A   Clear
10:35 PM 45.1 °F 43.7 °F 25.3 °F 46% 30.23 in 10.0 mi NNW 3.5 mph - N/A   Clear
10:55 PM 43.5 °F - 25.9 °F 50% 30.23 in 10.0 mi Calm Calm - N/A   Clear
11:15 PM 42.3 °F - 26.8 °F 54% 30.23 in 10.0 mi Calm Calm - N/A   Clear
11:35 PM 42.1 °F - 26.4 °F 54% 30.23 in 10.0 mi Calm Calm - N/A   Clear
11:55 PM 40.5 °F - 26.6 °F 58% 30.23 in 10.0 mi Calm Calm - N/A   Clear